| time (UTC) | temp C | wind direction | speed KPH | gust KPH | rain 1hr cm | rain 24hr cm | rain mn cm | humidity % | barometer mb |
| 20260502210003 | 11 | 269 | 0.0 | 1.6 | 0.03 | 1.98 | 1.98 | 99 | 1010.8 |
| 20260502205003 | 11 | 268 | 0.0 | 3.2 | 0.03 | 1.98 | 1.98 | 99 | 1010.9 |
| 20260502204003 | 11 | 271 | 0.0 | 3.2 | 0.05 | 1.98 | 1.98 | 99 | 1010.8 |
| 20260502203003 | 11 | 281 | 0.0 | 1.6 | 0.05 | 1.98 | 1.98 | 99 | 1010.9 |
| 20260502202003 | 11 | 297 | 0.0 | 3.2 | 0.05 | 1.98 | 1.98 | 99 | 1010.9 |
| 20260502201003 | 11 | 252 | 0.0 | 1.6 | 0.05 | 1.98 | 1.98 | 99 | 1011.3 |
| 20260502200003 | 11 | 258 | 0.0 | 1.6 | 0.05 | 1.96 | 1.96 | 99 | 1011.0 |
| 20260502195003 | 11 | 243 | 0.0 | 1.6 | 0.05 | 1.96 | 1.96 | 99 | 1011.1 |
| 20260502194003 | 11 | 0 | 0.0 | 0.0 | 0.05 | 1.93 | 1.93 | 99 | 1011.0 |
| 20260502193003 | 12 | 0 | 0.0 | 1.6 | 0.08 | 1.93 | 1.93 | 99 | 1011.3 |
| 20260502192003 | 11 | 269 | 0.0 | 3.2 | 0.10 | 1.93 | 1.93 | 99 | 1011.2 |
| 20260502191003 | 11 | 256 | 0.0 | 3.2 | 0.15 | 1.93 | 1.93 | 99 | 1011.1 |
| 20260502190003 | 12 | 259 | 0.0 | 3.2 | 0.15 | 1.91 | 1.91 | 99 | 1011.3 |
| 20260502185003 | 12 | 255 | 0.0 | 3.2 | 0.20 | 1.91 | 1.91 | 99 | 1011.1 |
| 20260502184024 | 12 | 267 | 0.0 | 3.2 | 0.23 | 1.88 | 1.88 | 99 | 1011.5 |
| 20260502183003 | 12 | 255 | 0.0 | 1.6 | 0.30 | 1.85 | 1.85 | 98 | 1011.5 |
| 20260502182024 | 12 | 250 | 0.0 | 1.6 | 0.41 | 1.83 | 1.83 | 98 | 1011.4 |
| 20260502181003 | 12 | 268 | 0.0 | 3.2 | 0.56 | 1.78 | 1.78 | 98 | 1011.5 |
| 20260502164003 | 12 | 0 | 0.0 | 0.0 | 0.28 | 0.86 | 0.86 | 96 | 1012.3 |
| 20260502163003 | 13 | 0 | 0.0 | 0.0 | 0.20 | 0.74 | 0.74 | 96 | 1012.2 |
| 20260502162003 | 12 | 267 | 0.0 | 3.2 | 0.25 | 0.69 | 0.69 | 96 | 1012.2 |
| 20260502161003 | 12 | 253 | 0.0 | 3.2 | 0.30 | 0.66 | 0.66 | 95 | 1012.0 |
| 20260502152003 | 13 | 31 | 0.0 | 1.6 | 0.38 | 0.43 | 0.43 | 93 | 1012.8 |
| 20260502151002 | 13 | 0 | 0.0 | 0.0 | 0.36 | 0.36 | 0.36 | 93 | 1013.1 |
| 20260502123002 | 16 | 278 | 0.0 | 3.2 | 0.00 | 0.00 | 0.00 | 67 | 1014.5 |
| 20260502122023 | 17 | 287 | 0.0 | 4.8 | 0.00 | 0.00 | 0.00 | 68 | 1014.5 |
| 20260502121002 | 17 | 259 | 0.0 | 1.6 | 0.00 | 0.00 | 0.00 | 67 | 1014.9 |
| 20260502115002 | 17 | 268 | 0.0 | 4.8 | 0.00 | 0.00 | 0.00 | 67 | 1015.2 |
| 20260502114002 | 16 | 265 | 0.0 | 4.8 | 0.00 | 0.00 | 0.00 | 70 | 1015.3 |
| 20260502113002 | 16 | 260 | 1.6 | 3.2 | 0.00 | 0.00 | 0.00 | 67 | 1015.1 |
| 20260502112002 | 16 | 277 | 0.0 | 3.2 | 0.00 | 0.00 | 0.00 | 66 | 1015.1 |
| 20260502111002 | 17 | 264 | 0.0 | 3.2 | 0.00 | 0.00 | 0.00 | 66 | 1015.4 |
| 20260502110002 | 17 | 273 | 0.0 | 1.6 | 0.00 | 0.00 | 0.00 | 67 | 1015.8 |
| 20260502105002 | 16 | 272 | 0.0 | 4.8 | 0.00 | 0.00 | 0.00 | 71 | 1016.0 |
| 20260502104002 | 16 | 176 | 0.0 | 3.2 | 0.00 | 0.00 | 0.00 | 70 | 1016.0 |
| 20260502103002 | 16 | 303 | 0.0 | 3.2 | 0.00 | 0.00 | 0.00 | 70 | 1016.0 |
| 20260502102002 | 16 | 214 | 0.0 | 3.2 | 0.00 | 0.00 | 0.00 | 71 | 1016.5 |
| 20260502101002 | 16 | 151 | 0.0 | 4.8 | 0.00 | 0.00 | 0.00 | 71 | 1016.6 |
| 20260502091002 | 15 | 242 | 0.0 | 3.2 | 0.00 | 0.00 | 0.00 | 74 | 1016.8 |
| 20260502071002 | 11 | 251 | 0.0 | 1.6 | 0.00 | 0.00 | 0.00 | 88 | 1017.9 |
| 20260502070023 | 11 | 244 | 0.0 | 1.6 | 0.00 | 0.00 | 0.00 | 88 | 1017.8 |
| 20260502065002 | 11 | 258 | 0.0 | 1.6 | 0.00 | 0.00 | 0.00 | 92 | 1017.8 |
| 20260502064023 | 10 | 0 | 0.0 | 0.0 | 0.00 | 0.00 | 0.00 | 95 | 1017.8 |
| 20260502063002 | 10 | 0 | 0.0 | 0.0 | 0.00 | 0.00 | 0.00 | 96 | 1018.1 |
| 20260502062002 | 8 | 0 | 0.0 | 0.0 | 0.00 | 0.00 | 0.00 | 96 | 1018.3 |
| 20260502061002 | 8 | 0 | 0.0 | 0.0 | 0.00 | 0.00 | 0.00 | 96 | 1018.1 |
| 20260502060002 | 8 | 0 | 0.0 | 0.0 | 0.00 | 0.00 | 0.00 | 96 | 1018.1 |
| 20260502055023 | 8 | 0 | 0.0 | 0.0 | 0.00 | 0.00 | 0.00 | 96 | 1018.4 |
| 20260502054002 | 8 | 0 | 0.0 | 0.0 | 0.00 | 0.00 | 0.00 | 96 | 1018.5 |
| 20260502053002 | 8 | 0 | 0.0 | 0.0 | 0.00 | 0.00 | 0.00 | 96 | 1018.3 |
| 20260502052002 | 8 | 0 | 0.0 | 0.0 | 0.00 | 0.00 | 0.00 | 96 | 1018.4 |
| 20260502051002 | 8 | 0 | 0.0 | 0.0 | 0.00 | 0.00 | 0.00 | 96 | 1018.4 |
| 20260502050002 | 8 | 0 | 0.0 | 0.0 | 0.00 | 0.00 | 0.00 | 96 | 1018.1 |
| 20260502045002 | 8 | 0 | 0.0 | 0.0 | 0.00 | 0.00 | 0.00 | 96 | 1018.1 |
| 20260502044002 | 8 | 0 | 0.0 | 1.6 | 0.00 | 0.00 | 0.00 | 96 | 1018.0 |
| 20260502043002 | 8 | 0 | 0.0 | 1.6 | 0.00 | 0.00 | 0.00 | 96 | 1017.9 |
| 20260502042002 | 8 | 0 | 0.0 | 0.0 | 0.00 | 0.00 | 0.00 | 96 | 1017.9 |
| 20260502041023 | 8 | 0 | 0.0 | 0.0 | 0.00 | 0.00 | 0.00 | 96 | 1018.3 |
| 20260502040002 | 8 | 0 | 0.0 | 1.6 | 0.00 | 0.00 | 0.00 | 95 | 1018.3 |
| 20260502035002 | 8 | 0 | 0.0 | 1.6 | 0.00 | 0.00 | 0.00 | 95 | 1018.4 |
| 20260502034002 | 8 | 0 | 0.0 | 1.6 | 0.00 | 0.00 | 0.00 | 95 | 1018.4 |
| 20260502033003 | 8 | 295 | 0.0 | 1.6 | 0.00 | 0.00 | 0.00 | 94 | 1018.4 |
| 20260502032002 | 8 | 0 | 0.0 | 0.0 | 0.00 | 0.00 | 0.00 | 94 | 1018.6 |
| 20260502031003 | 8 | 0 | 0.0 | 0.0 | 0.00 | 0.00 | 0.00 | 94 | 1018.5 |
| 20260502030002 | 8 | 0 | 0.0 | 0.0 | 0.00 | 0.00 | 0.00 | 94 | 1018.6 |
| 20260502025002 | 8 | 0 | 0.0 | 0.0 | 0.00 | 0.00 | 0.00 | 94 | 1018.6 |
| 20260502024003 | 8 | 0 | 0.0 | 0.0 | 0.00 | 0.00 | 0.00 | 93 | 1018.6 |
| 20260502023003 | 9 | 0 | 0.0 | 0.0 | 0.00 | 0.00 | 0.00 | 93 | 1018.9 |
| 20260502022003 | 10 | 0 | 0.0 | 0.0 | 0.00 | 0.00 | 0.00 | 93 | 1018.9 |
| 20260502021003 | 10 | 0 | 0.0 | 0.0 | 0.00 | 0.00 | 0.00 | 94 | 1019.2 |
| 20260502020003 | 10 | 0 | 0.0 | 0.0 | 0.00 | 0.00 | 0.00 | 94 | 1019.2 |
| 20260502015003 | 10 | 0 | 0.0 | 0.0 | 0.00 | 0.00 | 0.00 | 94 | 1019.2 |
| 20260502014024 | 10 | 0 | 0.0 | 0.0 | 0.00 | 0.00 | 0.00 | 94 | 1019.1 |
| 20260502013003 | 10 | 0 | 0.0 | 0.0 | 0.00 | 0.00 | 0.00 | 94 | 1018.9 |
| 20260502012024 | 10 | 0 | 0.0 | 0.0 | 0.00 | 0.00 | 0.00 | 94 | 1019.3 |
| 20260502011003 | 10 | 0 | 0.0 | 0.0 | 0.00 | 0.00 | 0.00 | 94 | 1019.3 |
| 20260502010003 | 10 | 0 | 0.0 | 0.0 | 0.00 | 0.00 | 0.00 | 93 | 1019.4 |
| 20260502005024 | 10 | 0 | 0.0 | 0.0 | 0.00 | 0.00 | 0.00 | 93 | 1019.1 |
| 20260502004003 | 10 | 0 | 0.0 | 0.0 | 0.00 | 0.00 | 0.00 | 92 | 1019.6 |
| 20260502003003 | 10 | 0 | 0.0 | 0.0 | 0.00 | 0.00 | 0.00 | 91 | 1019.6 |
| 20260502002003 | 10 | 0 | 0.0 | 0.0 | 0.00 | 0.00 | 0.00 | 90 | 1019.8 |
| 20260502001003 | 11 | 0 | 0.0 | 0.0 | 0.00 | 0.00 | 0.00 | 90 | 1019.7 |
| 20260502000003 | 11 | 0 | 0.0 | 1.6 | 0.00 | 0.00 | 0.00 | 89 | 1019.6 |
| 20260501235003 | 11 | 0 | 0.0 | 0.0 | 0.00 | 0.00 | 0.00 | 89 | 1019.6 |
| 20260501234003 | 11 | 0 | 0.0 | 0.0 | 0.00 | 0.00 | 0.00 | 88 | 1019.8 |
| 20260501233024 | 12 | 0 | 0.0 | 1.6 | 0.00 | 0.00 | 0.00 | 87 | 1019.7 |
| 20260501232003 | 12 | 147 | 0.0 | 1.6 | 0.00 | 0.00 | 0.00 | 87 | 1019.8 |
| 20260501231003 | 12 | 135 | 0.0 | 1.6 | 0.00 | 0.00 | 0.00 | 87 | 1020.0 |
| 20260501230003 | 12 | 100 | 0.0 | 1.6 | 0.00 | 0.00 | 0.00 | 88 | 1020.3 |
| 20260501225003 | 11 | 129 | 0.0 | 1.6 | 0.00 | 0.00 | 0.00 | 89 | 1020.1 |
| 20260501224024 | 11 | 0 | 0.0 | 0.0 | 0.00 | 0.00 | 0.00 | 90 | 1020.3 |
| 20260501223003 | 11 | 0 | 0.0 | 0.0 | 0.00 | 0.00 | 0.00 | 91 | 1020.1 |
| 20260501222024 | 11 | 0 | 0.0 | 0.0 | 0.00 | 0.00 | 0.00 | 92 | 1020.6 |
| 20260501221003 | 11 | 0 | 0.0 | 0.0 | 0.00 | 0.00 | 0.00 | 91 | 1020.1 |
| 20260501220024 | 11 | 0 | 0.0 | 0.0 | 0.00 | 0.00 | 0.00 | 91 | 1020.3 |
| 20260501215003 | 11 | 0 | 0.0 | 0.0 | 0.00 | 0.00 | 0.00 | 91 | 1020.1 |
| 20260501214003 | 11 | 0 | 0.0 | 0.0 | 0.00 | 0.00 | 0.00 | 91 | 1020.3 |
| 20260501213003 | 11 | 0 | 0.0 | 0.0 | 0.00 | 0.00 | 0.00 | 91 | 1020.1 |
| 20260501212003 | 11 | 0 | 0.0 | 0.0 | 0.00 | 0.00 | 0.00 | 90 | 1020.1 |
| 20260501211003 | 11 | 135 | 0.0 | 3.2 | 0.00 | 0.00 | 0.00 | 90 | 1020.3 |